GFSSW_sfc_wetblb_078.txt.gz
Wetbulb
58.15 58.19 58.74 58.84 58.95 58.93 58.80 58.97 59.26 59.43 59.58 59.69 59.92 59.98 60.43 60.74 60.31 64.37 61.51 67.55 70.03 73.54 75.01 73.06 73.39 73.43 72.49 69.91 70.72 69.27 61.82 58.37 58.56 59.04 60.23 64.74 63.16 66.34 67.05 64.72 65.57 67.03 68.21 70.07 71.86
57.71 58.10 58.35 58.48 58.46 58.35 58.39 58.58 58.63 58.91 58.95 59.12 59.44 59.87 60.19 60.66 61.55 59.43 70.72 74.80 72.90 74.14 71.07 70.84 69.99 71.45 69.02 68.94 66.76 64.25 60.90 60.98 61.02 61.70 62.12 63.95 64.16 65.20 62.89 62.64 65.02 66.57 69.60 70.93 71.62
57.45 57.64 58.00 57.95 58.00 58.06 58.05 58.16 58.29 58.44 58.49 58.94 59.37 59.87 60.28 60.68 60.82 60.11 74.91 74.39 73.18 74.17 69.80 71.20 71.13 67.23 65.74 66.41 63.15 61.61 59.28 60.32 61.31 61.98 62.86 63.13 64.08 66.40 63.67 61.59 66.13 65.75 67.98 69.59 70.99
56.98 56.89 57.22 57.25 57.32 57.46 57.78 57.82 57.86 57.77 58.15 58.62 59.26 59.98 60.38 62.34 54.43 69.13 75.61 74.43 73.64 71.08 70.00 68.99 68.15 63.29 63.21 61.85 62.51 58.64 61.20 61.60 61.35 61.64 61.15 61.53 63.59 63.97 63.97 65.39 67.58 69.12 69.66 69.40 70.13
56.70 56.74 56.44 56.65 56.92 57.20 57.40 57.45 57.45 57.40 57.62 58.45 59.34 60.33 61.51 57.35 59.32 72.09 75.87 74.33 71.60 69.58 70.31 67.41 65.02 62.83 60.65 61.70 60.62 59.54 60.43 61.45 61.92 61.92 61.16 62.58 61.36 62.11 63.21 66.88 67.89 69.79 69.58 69.15 69.85
56.14 56.33 56.38 56.66 56.87 56.70 56.73 56.86 56.84 56.98 57.47 58.33 59.55 60.11 61.60 53.84 67.90 71.34 70.81 70.72 67.50 69.30 69.62 67.41 64.89 63.30 59.96 58.64 58.07 60.07 60.71 60.54 61.16 61.35 62.22 61.26 61.54 62.48 63.71 66.87 67.68 68.34 68.53 69.19 69.51
55.64 55.63 56.03 56.41 56.60 56.23 56.42 56.37 56.34 56.74 57.63 58.81 60.11 62.60 56.96 55.32 62.71 70.78 69.85 67.57 67.29 67.67 65.37 65.89 66.36 62.34 61.25 57.84 61.16 60.10 57.40 59.26 60.07 60.77 61.02 63.22 59.85 59.91 64.28 66.14 67.18 67.30 68.44 69.84 70.78
55.36 55.33 55.53 55.71 55.66 55.75 55.65 55.08 55.83 56.74 58.17 60.04 61.45 62.60 55.10 61.34 63.24 64.32 68.51 68.02 67.67 67.61 65.92 65.64 64.27 60.00 58.05 59.44 58.64 57.22 57.44 53.57 58.47 60.20 62.66 61.57 57.33 62.34 64.97 64.75 66.00 67.40 68.21 69.13 70.43
54.90 55.02 55.04 55.18 55.12 55.13 54.55 54.48 55.76 57.63 59.65 61.41 62.41 59.90 54.60 63.45 58.73 61.07 65.74 65.95 66.60 66.44 65.94 63.84 60.85 57.83 58.30 55.31 53.47 54.99 51.67 53.57 55.88 62.10 61.97 61.52 58.09 62.57 65.03 64.22 65.81 67.29 68.62 68.71 70.07
54.55 54.44 54.52 54.62 54.58 54.19 53.70 54.52 58.80 59.65 60.38 62.51 61.95 56.69 59.54 56.65 59.35 60.20 63.01 64.66 64.38 63.77 62.17 58.87 56.83 54.54 54.68 52.79 47.85 51.13 52.22 54.17 54.47 59.66 60.84 59.63 57.95 61.46 62.91 62.96 63.79 65.37 69.12 69.60 69.47
54.08 54.26 54.13 54.21 53.98 53.51 53.60 57.43 57.11 58.20 57.89 55.44 55.60 54.75 57.14 60.16 61.52 59.48 60.40 60.14 62.73 59.65 55.00 56.87 52.83 50.45 52.38 54.31 54.18 53.49 52.62 52.58 55.69 58.03 57.36 56.71 56.97 58.48 61.00 60.48 60.58 65.20 68.02 69.66 70.07
53.99 53.80 53.78 53.63 53.18 53.03 54.34 55.49 55.66 56.25 50.63 55.82 57.36 57.38 58.68 60.61 55.65 57.34 60.91 55.36 55.62 53.87 55.47 53.74 50.97 54.13 54.87 54.61 53.83 53.29 52.07 52.34 54.77 56.63 56.16 55.24 54.81 58.05 59.32 60.82 60.87 61.16 65.45 68.40 69.67
53.72 53.39 53.14 53.04 52.31 55.67 56.34 53.88 58.83 57.41 50.13 52.00 54.64 54.42 56.49 58.39 55.32 56.24 58.38 56.96 53.98 52.24 53.10 51.83 53.30 55.42 53.97 53.10 51.93 52.38 51.79 52.53 52.29 54.75 55.65 54.46 53.19 56.61 58.79 60.92 61.25 62.01 63.48 67.00 69.24
53.43 53.12 52.68 51.88 53.14 54.39 53.36 58.30 57.93 57.10 46.79 49.36 52.53 54.09 55.33 56.22 54.54 59.18 59.52 57.32 55.10 52.62 53.39 53.10 55.57 53.93 53.12 52.12 52.59 49.35 53.84 53.26 52.14 51.10 47.77 53.80 46.78 56.90 57.88 59.73 60.50 60.77 62.43 62.87 69.35
53.08 52.97 52.50 51.36 51.95 53.15 55.57 56.61 56.73 55.24 38.29 51.42 53.38 59.44 56.50 53.07 54.56 56.29 59.69 56.62 53.29 53.66 54.04 52.36 53.60 53.28 52.24 52.40 53.74 51.22 54.17 52.60 52.28 50.93 50.51 50.77 48.53 52.68 59.19 58.65 58.90 60.85 62.35 63.61 66.68
52.60 52.37 52.00 53.12 54.85 56.47 56.84 56.30 54.79 45.41 39.32 48.96 53.32 52.86 52.32 53.10 53.51 55.82 56.68 57.68 56.88 54.07 54.67 53.98 56.95 55.64 54.78 54.98 54.56 54.68 52.80 52.40 52.21 50.54 46.23 50.38 49.26 50.26 53.70 57.74 58.83 61.48 63.86 64.58 64.99
52.18 51.23 50.42 52.77 50.66 55.07 55.87 53.07 44.01 40.59 50.84 48.41 49.55 51.94 51.43 50.79 51.56 52.54 52.56 53.20 50.74 49.00 49.63 52.32 53.15 55.90 56.40 52.77 54.51 53.21 50.11 44.83 44.73 45.04 44.62 52.09 49.52 52.79 57.17 59.78 60.57 60.51 62.28 63.89 65.58
51.28 50.20 54.14 55.81 57.79 57.54 55.07 47.62 40.10 46.72 47.88 51.65 50.98 50.99 48.96 51.05 50.70 51.36 50.77 50.42 54.08 52.33 49.54 47.96 46.97 53.03 55.80 53.35 51.36 51.62 50.60 45.91 42.73 43.47 46.43 53.53 49.24 52.96 59.41 60.86 60.04 60.20 61.51 64.35 65.35
49.99 54.56 54.26 57.08 59.05 57.58 50.44 42.75 43.73 47.32 50.19 49.68 50.36 48.43 48.47 50.52 50.77 50.24 50.08 49.63 52.21 53.70 50.36 48.52 48.52 54.82 54.95 55.49 54.18 51.11 49.74 52.22 48.28 49.73 46.72 49.36 53.49 57.52 60.06 58.50 58.85 59.58 64.39 65.12 68.22
49.05 52.90 54.92 59.39 59.77 55.12 47.37 42.47 47.39 50.85 50.75 51.60 47.31 49.44 46.87 48.78 48.66 48.97 49.62 51.97 50.99 53.60 55.35 52.33 48.72 52.81 54.40 55.86 55.12 52.79 53.60 48.43 49.62 44.53 43.86 47.47 50.99 52.25 57.86 57.10 63.42 65.37 66.15 68.56 70.03
51.48 50.74 59.38 61.16 59.86 51.67 44.21 45.92 48.63 51.73 51.62 49.86 48.88 48.40 48.88 48.32 49.73 48.84 49.84 51.83 53.35 52.88 53.94 52.38 51.54 50.34 53.39 52.63 51.33 51.40 50.03 50.78 50.49 50.47 45.68 45.16 48.76 59.12 59.13 62.37 65.29 66.58 67.88 69.28 70.69
50.28 47.22 59.06 59.58 50.43 50.02 46.08 48.34 48.07 49.58 51.76 50.74 51.60 50.14 49.00 49.67 49.66 49.50 49.78 52.51 56.02 55.20 50.82 53.13 51.49 49.02 49.56 54.56 55.62 54.02 51.91 51.67 48.15 48.66 50.37 50.34 49.58 58.27 60.91 63.28 65.73 67.02 68.17 70.06 71.38
48.43 49.80 57.31 55.69 46.25 47.97 51.09 49.06 49.71 48.91 49.28 49.48 49.18 51.12 51.64 49.37 47.59 49.73 50.87 54.67 55.82 55.58 55.10 56.27 51.39 47.77 48.52 51.67 54.06 51.72 52.50 52.94 53.67 54.61 50.24 47.96 49.13 60.68 62.57 63.30 67.21 67.48 68.23 70.51 71.93
48.48 48.09 53.09 56.00 53.40 49.82 49.23 49.26 47.74 50.90 48.90 49.58 48.96 50.24 49.61 48.93 50.98 49.00 50.26 53.46 55.45 55.70 61.20 60.22 53.00 51.57 45.49 49.58 51.97 50.74 51.25 52.33 52.22 50.22 50.34 49.15 52.42 59.15 61.04 63.08 64.62 68.28 69.81 70.39 71.42
51.44 49.73 53.05 48.94 53.52 53.46 51.24 49.93 48.83 48.96 52.35 51.70 50.12 49.41 48.27 46.64 48.11 48.24 50.69 51.89 54.10 57.30 56.47 56.81 53.51 52.62 51.74 51.37 51.35 50.36 50.76 51.73 50.65 51.48 49.64 55.66 56.59 56.72 57.69 63.00 65.41 68.54 68.69 69.07 70.45
49.35 49.30 52.55 50.56 53.89 53.33 50.37 50.65 49.93 51.31 51.48 49.82 50.09 51.23 50.64 48.88 48.79 47.99 50.52 51.82 51.60 53.96 54.74 56.23 53.40 53.19 50.43 51.50 51.26 49.73 51.37 51.69 51.95 51.80 51.20 53.37 56.19 59.93 61.53 65.65 65.06 66.26 68.27 68.65 69.59
52.77 52.65 49.34 48.40 51.33 51.57 51.60 50.98 52.46 52.90 53.41 52.69 52.25 51.24 50.11 51.44 53.33 53.45 53.13 54.14 54.70 55.72 54.06 52.36 53.70 53.45 49.19 51.49 52.02 48.25 51.19 51.85 52.29 55.47 54.87 51.68 56.87 63.14 63.28 64.52 65.14 66.02 65.99 67.70 68.96

GFSSW_sfc_wetblb_081.txt.gz
Wetbulb
58.03 58.39 58.48 58.67 58.66 58.52 58.62 58.68 58.86 59.12 59.36 59.59 59.67 59.79 60.01 60.36 59.91 61.20 60.97 64.26 67.90 73.17 74.29 69.62 68.72 69.77 71.35 68.71 68.68 68.03 57.62 56.02 58.21 58.51 58.91 61.94 61.73 64.55 66.09 64.62 65.99 67.82 67.31 68.69 70.33
57.66 57.93 58.22 58.43 58.27 58.38 58.20 58.32 58.55 58.60 58.77 58.84 59.17 59.53 59.86 60.34 59.55 56.37 65.94 73.06 73.87 73.28 70.77 67.93 68.92 69.81 65.85 66.71 66.07 62.63 53.88 56.91 60.65 60.71 60.09 63.30 63.70 62.35 61.95 62.11 64.84 66.52 69.38 70.29 70.17
57.16 57.14 57.19 57.18 57.59 57.97 58.02 57.98 58.23 58.19 58.21 58.43 58.98 59.56 60.00 59.91 58.64 60.08 75.33 74.39 72.62 72.94 66.54 68.01 69.70 67.73 60.97 62.65 62.96 60.58 56.60 59.89 60.11 59.68 62.19 61.99 64.15 65.17 62.03 60.74 62.81 64.77 66.66 68.53 68.75
56.88 56.86 56.80 56.83 56.73 57.48 57.69 57.73 57.77 57.80 57.84 58.23 59.00 59.61 60.19 60.18 50.53 67.67 75.18 74.17 72.70 71.43 65.70 63.95 66.78 62.77 60.55 58.49 62.51 56.82 58.04 58.85 58.57 59.73 58.77 61.23 65.00 64.25 63.79 63.37 66.17 67.83 67.95 68.27 68.15
56.36 56.26 56.21 56.71 57.06 57.12 57.39 57.42 57.30 57.19 57.44 58.06 58.98 59.97 58.88 53.19 56.43 72.15 75.53 73.85 70.72 69.18 63.41 64.88 64.63 62.46 58.99 58.98 56.96 55.03 56.50 58.31 59.01 58.70 58.52 60.54 59.05 60.72 63.02 66.55 68.02 68.34 68.32 68.16 68.38
56.26 56.19 56.25 56.63 56.62 56.72 56.67 56.58 56.50 56.51 57.19 58.09 59.07 60.12 58.92 50.45 62.39 71.57 69.27 69.75 67.53 65.47 64.88 66.50 65.59 64.05 60.03 57.19 54.57 56.19 57.07 57.48 57.78 58.70 59.52 58.35 58.84 58.97 62.71 67.80 67.34 67.39 66.66 68.00 68.39
55.38 55.63 55.77 56.11 56.27 56.20 56.13 56.00 55.97 56.29 57.20 58.02 59.13 60.80 56.33 52.33 59.73 69.00 67.43 66.03 66.68 63.65 63.75 67.43 66.04 61.75 60.24 56.13 58.25 55.87 52.91 55.67 56.28 57.40 57.43 59.82 57.82 58.50 62.85 66.92 66.21 66.55 66.73 67.43 68.14
54.97 54.90 55.42 55.48 55.54 55.76 55.59 55.14 55.50 56.64 57.70 59.07 60.33 58.73 52.48 58.39 57.71 57.98 67.22 65.71 65.18 63.98 65.11 65.23 63.56 59.16 53.92 55.83 54.33 51.47 51.25 48.22 55.09 56.44 58.25 58.64 52.84 60.41 62.18 61.43 64.82 66.00 66.86 66.97 67.47
54.77 54.95 54.80 54.84 54.99 54.83 54.47 54.31 55.78 57.81 59.00 60.48 57.49 55.07 49.85 62.05 57.69 57.98 60.40 64.03 65.12 63.86 63.50 65.67 61.14 55.42 53.39 49.58 47.37 48.86 45.61 48.44 51.89 56.86 60.34 59.38 55.64 60.89 61.88 61.92 63.54 64.92 65.79 67.19 67.33
54.38 54.37 54.33 54.31 54.27 53.96 53.69 54.22 56.06 58.00 58.87 60.39 59.80 51.77 56.05 56.08 58.91 58.08 57.17 63.36 63.43 62.62 61.52 60.35 55.15 49.06 48.46 45.74 40.93 44.88 46.07 48.63 50.07 55.33 58.15 57.01 56.20 59.36 60.91 61.80 62.73 63.29 65.53 66.25 67.11
54.09 54.08 53.85 53.77 53.40 53.05 51.19 50.60 52.21 52.09 53.36 51.71 53.12 51.57 51.85 56.35 59.94 57.69 57.79 56.62 59.93 59.61 54.72 56.94 49.20 44.48 47.31 49.03 50.72 50.20 48.71 48.30 50.96 54.10 53.33 54.19 55.03 55.18 59.49 59.53 60.01 63.35 65.07 65.30 66.55
54.01 53.80 53.65 53.44 52.67 52.25 50.72 50.70 51.48 51.23 47.46 52.73 52.26 52.75 56.01 57.73 53.70 55.85 58.23 51.85 54.14 53.11 55.77 51.68 48.14 51.41 53.16 52.43 50.80 49.81 48.39 48.04 50.86 54.07 51.09 50.71 50.82 53.01 54.04 55.57 56.38 61.62 65.20 65.72 66.18
53.79 53.62 53.23 52.98 51.87 52.67 51.02 51.30 54.23 52.93 46.06 48.76 51.18 50.73 52.21 53.80 52.59 54.05 54.33 52.86 51.25 51.36 53.03 49.29 50.56 54.18 52.69 51.16 49.67 47.93 45.58 47.43 48.18 51.43 50.53 49.60 48.04 50.28 54.02 56.38 56.92 58.53 66.19 66.94 66.53
53.34 53.15 52.79 51.54 50.52 49.62 50.51 54.66 54.24 52.66 40.21 45.73 48.43 51.28 52.09 53.06 49.48 56.06 57.15 53.85 51.03 48.56 50.52 49.40 53.06 52.32 51.43 50.11 50.00 43.20 50.26 50.30 50.05 47.06 41.56 48.53 40.04 47.10 52.14 54.08 56.96 57.83 61.90 66.32 67.29
53.02 52.88 52.54 51.48 46.37 48.77 52.61 55.20 54.71 50.59 32.20 49.55 50.39 56.31 52.92 50.03 51.06 52.05 56.54 53.86 50.12 50.16 49.51 47.88 49.91 50.03 49.81 50.44 51.55 47.57 51.18 49.53 49.46 44.86 42.02 45.49 40.45 44.89 49.11 51.51 55.75 57.62 60.69 65.46 67.93
52.71 52.36 52.17 49.79 48.80 51.75 53.65 53.80 50.37 39.46 34.68 46.90 51.43 50.19 49.10 50.43 50.61 52.20 52.42 55.60 54.82 50.38 51.39 50.64 54.20 52.51 51.53 53.81 53.01 52.94 49.45 47.78 46.05 42.41 37.57 43.12 43.25 44.52 46.52 52.70 55.27 58.74 60.88 61.52 62.59
51.88 51.27 50.27 50.09 46.18 51.12 53.16 49.54 38.33 35.01 48.44 45.91 47.07 50.35 49.70 48.31 48.60 49.29 48.31 48.05 47.75 43.17 43.87 48.62 49.87 52.72 54.01 50.46 51.91 49.55 43.96 36.85 36.05 36.24 37.01 44.49 42.97 46.62 50.72 56.42 57.13 57.25 59.26 61.48 62.46
50.97 50.41 50.89 52.34 52.01 50.47 51.26 43.28 34.77 44.13 45.35 49.71 49.45 49.32 47.25 49.01 48.48 48.66 47.37 46.16 49.36 48.80 44.69 43.35 42.68 49.65 52.96 50.52 48.18 46.82 43.46 38.25 33.63 35.02 40.60 46.22 41.86 47.67 54.75 58.15 58.73 59.05 59.08 61.53 62.81
50.18 49.36 50.31 53.76 54.53 54.65 46.33 37.39 39.52 45.37 48.42 47.15 47.31 45.99 46.73 49.23 49.29 49.23 47.32 46.48 48.44 49.32 44.97 43.85 44.41 52.46 52.92 53.15 51.69 47.14 43.01 45.79 39.96 40.73 38.62 42.05 46.37 53.97 55.86 55.86 56.14 59.84 63.05 63.70 64.63
45.43 47.02 51.74 55.97 56.11 51.94 43.15 39.50 43.24 47.45 47.74 47.57 43.08 46.63 44.23 46.70 46.81 47.37 48.10 49.83 49.83 51.13 51.38 48.45 43.55 49.29 52.29 52.87 52.72 48.40 49.76 40.98 40.19 35.07 34.55 41.39 45.01 48.29 54.93 56.74 60.50 63.16 63.28 64.40 70.67
46.94 47.28 55.18 58.46 56.88 48.84 39.97 42.51 46.35 49.55 49.68 47.11 45.72 45.12 46.34 45.69 46.17 45.84 47.17 51.55 52.71 52.17 52.82 51.35 47.19 45.89 50.25 48.19 47.62 46.88 45.16 42.99 42.43 41.76 37.09 36.67 43.91 52.94 57.95 61.39 61.14 63.07 64.88 64.84 70.28
46.30 42.77 57.67 57.64 47.04 48.02 43.98 47.03 47.61 48.14 49.66 48.29 48.40 47.24 46.35 47.21 45.86 45.99 46.32 49.20 53.31 52.77 49.49 51.93 45.80 41.04 45.86 50.71 52.82 51.18 48.25 45.71 40.73 38.79 42.11 41.16 45.02 55.01 56.43 63.11 63.20 64.32 66.12 66.86 67.51
43.90 46.31 53.94 54.36 41.27 44.30 48.08 49.04 50.16 47.70 47.83 46.77 46.42 47.80 47.87 44.97 43.27 47.57 48.54 51.62 52.79 53.15 51.99 52.20 47.13 40.78 43.03 47.44 50.05 48.44 49.92 47.32 45.25 43.57 40.66 39.57 44.44 59.82 60.78 61.25 62.70 64.10 66.54 67.93 68.80
44.22 43.80 49.87 52.82 52.10 48.34 46.02 46.74 46.88 52.01 50.51 48.77 47.31 48.67 46.37 44.57 46.59 45.05 47.20 50.59 52.23 53.95 60.72 57.22 47.90 45.42 40.41 44.34 48.36 47.74 49.19 48.71 44.53 42.73 42.18 42.74 50.67 55.88 57.50 57.92 61.57 62.40 66.41 68.03 67.71
46.92 47.34 49.62 45.76 46.84 48.87 51.15 51.01 48.32 47.06 51.68 51.54 49.04 49.41 47.42 43.06 44.75 44.64 47.32 48.92 51.46 56.30 54.44 50.77 45.62 48.74 48.54 50.07 50.08 49.34 49.07 48.76 46.94 46.10 44.93 49.77 52.15 54.26 56.80 54.71 55.97 61.38 64.78 68.03 67.46
44.32 45.38 46.81 44.88 47.25 47.81 48.48 49.22 49.37 50.82 51.18 49.38 47.95 50.00 49.80 45.14 46.68 45.22 47.13 46.90 46.55 50.52 52.36 51.17 45.26 46.60 47.98 50.79 50.60 49.39 50.21 50.62 49.55 49.27 48.48 51.69 53.61 56.74 57.80 58.86 60.98 63.53 65.66 66.84 66.72
50.42 50.62 46.96 44.18 44.72 45.37 49.23 50.24 50.65 52.24 53.12 52.99 51.22 49.07 48.97 50.86 53.01 54.21 54.75 50.28 48.72 45.24 50.06 47.63 44.75 43.84 44.03 50.63 51.60 45.90 51.83 51.48 52.04 54.18 53.04 49.42 52.88 54.00 56.72 62.69 62.08 62.36 65.93 66.84 67.80

GFSSW_sfc_wetblb_084.txt.gz
Wetbulb
57.74 57.63 57.69 58.19 58.65 58.66 58.59 58.85 58.94 59.11 59.27 59.27 59.33 59.40 59.72 59.93 59.85 59.32 56.20 61.38 64.27 73.54 72.69 68.08 66.40 65.40 68.17 67.76 70.48 67.93 56.96 56.21 58.38 57.26 58.18 60.26 60.10 63.63 65.19 64.42 66.98 67.58 66.67 67.41 69.28
57.34 57.30 57.55 57.60 57.98 58.07 58.15 58.28 58.37 58.57 58.66 58.72 58.95 59.23 59.66 60.22 58.41 55.45 64.45 72.38 72.52 73.54 69.96 66.52 65.81 66.26 64.32 65.45 65.53 61.39 54.23 58.76 62.96 62.33 60.41 61.50 61.24 61.33 61.95 63.23 64.78 65.89 68.16 69.25 69.25
57.14 57.29 57.52 57.64 57.59 57.76 57.65 57.89 57.91 57.97 57.97 58.38 58.71 59.29 59.59 59.91 54.69 56.03 74.64 73.55 73.89 72.45 66.83 66.81 66.90 66.74 62.71 61.80 59.79 59.24 56.73 59.86 59.06 62.27 62.51 61.29 61.97 62.32 60.70 59.50 64.03 63.95 65.85 67.94 67.96
56.60 56.37 56.48 56.90 57.07 57.44 57.57 57.70 57.55 57.48 57.61 58.10 58.63 59.16 59.82 59.04 44.12 66.62 74.48 73.84 73.42 69.33 66.25 61.62 61.39 60.84 58.96 57.99 60.79 54.44 56.00 55.73 56.74 58.88 60.76 61.67 62.63 61.55 61.98 61.93 67.31 67.55 67.81 67.70 67.08
55.98 55.96 55.97 56.41 56.79 57.04 57.16 57.29 57.04 56.97 57.17 57.72 58.57 59.40 56.31 48.54 53.27 70.33 74.83 73.03 69.17 67.69 63.92 60.03 61.09 60.90 58.08 59.12 57.36 53.96 54.05 55.25 55.59 56.21 57.02 64.24 62.71 62.19 62.39 64.82 68.52 68.45 67.90 67.05 67.05
55.83 56.06 56.14 56.09 56.30 56.29 56.22 56.23 56.28 56.41 57.00 57.75 58.60 59.45 55.78 47.65 56.97 71.75 69.21 67.82 65.94 64.51 62.11 61.20 63.65 64.52 60.23 58.17 55.04 55.52 53.76 53.52 54.39 55.69 56.69 58.58 58.75 61.76 63.71 65.69 66.95 67.06 66.42 66.99 67.10
55.38 55.53 55.64 55.85 56.00 55.98 55.83 55.64 55.70 56.16 57.23 58.06 58.41 58.84 54.99 48.63 57.44 67.30 66.46 64.06 65.26 63.78 60.61 63.98 64.65 62.52 59.54 56.50 57.41 53.02 49.85 52.11 53.69 54.54 54.63 55.91 53.78 56.65 63.93 65.26 65.40 65.73 66.10 67.09 67.54
54.72 54.90 55.28 55.42 55.32 55.41 55.27 54.83 55.16 56.48 57.85 58.94 59.32 57.48 49.18 57.23 55.32 55.29 61.57 64.37 64.63 63.86 62.28 63.44 64.37 59.09 54.56 54.86 51.91 49.79 47.17 44.76 51.58 53.64 54.92 54.06 49.52 58.85 64.59 64.71 64.03 65.34 65.98 67.00 67.48
54.76 54.67 54.63 54.64 54.72 54.50 54.10 54.00 55.52 57.49 59.73 61.17 55.79 52.57 47.42 59.96 56.61 56.22 55.84 60.32 63.98 62.48 61.48 64.54 60.92 56.16 53.18 47.28 44.17 45.08 42.52 45.90 49.19 54.23 53.22 54.23 53.66 58.95 63.21 64.37 63.56 64.28 65.01 66.38 66.73
54.62 54.34 54.01 54.07 53.90 53.63 53.05 53.81 55.58 56.99 58.29 59.18 58.80 47.75 50.95 50.64 57.52 56.77 54.51 59.58 62.49 61.55 60.16 58.98 55.05 49.98 45.92 43.77 39.19 41.89 42.78 44.73 47.08 51.74 51.72 53.67 55.10 57.57 60.18 63.63 63.56 64.10 64.59 65.15 65.73
54.68 54.32 53.85 53.56 53.41 52.88 50.74 48.25 48.11 45.31 48.21 45.19 48.76 50.68 52.55 55.09 56.33 55.95 56.49 55.81 60.14 58.46 53.54 55.69 49.63 45.95 47.67 46.70 47.83 47.19 45.91 45.56 48.80 51.72 49.18 49.93 51.44 58.03 59.79 60.52 62.45 63.32 63.99 64.56 65.13
54.57 54.21 53.87 53.33 52.46 52.39 48.20 47.12 48.88 49.46 41.87 49.56 51.12 51.05 52.45 53.21 49.56 52.52 55.52 51.06 51.77 52.83 53.82 50.86 48.43 53.11 53.08 50.33 48.49 47.36 45.48 45.50 48.74 51.02 48.70 48.43 48.45 51.23 54.05 57.38 58.03 61.03 63.21 64.56 65.39
54.34 53.95 53.33 52.62 52.06 48.31 43.78 45.91 50.48 48.92 40.76 45.70 48.79 48.58 49.16 50.46 48.94 50.11 52.26 51.44 49.00 48.20 50.68 49.35 52.66 55.45 51.94 50.16 48.10 46.69 43.65 45.74 45.42 49.23 47.85 47.54 45.64 47.28 50.74 52.63 54.26 56.20 62.75 64.87 65.55
54.05 53.74 52.91 51.58 45.34 44.71 45.64 50.09 51.53 49.38 36.40 42.03 45.00 48.61 49.16 49.37 46.90 53.93 54.15 52.11 48.53 47.03 50.06 49.87 54.36 52.10 50.46 49.42 48.85 42.94 49.52 48.68 47.55 44.72 40.75 46.15 38.20 44.08 47.19 48.74 51.85 54.33 61.95 63.99 65.22
53.88 53.33 52.54 51.81 42.00 43.58 47.71 48.80 50.86 45.75 29.88 48.01 48.51 52.32 49.05 47.35 49.16 50.30 54.50 49.87 46.91 47.24 47.41 47.39 49.75 47.80 47.85 49.40 50.30 46.73 50.03 48.46 47.95 43.20 39.64 42.73 38.76 42.41 45.64 47.38 52.80 56.62 59.97 64.45 65.41
53.63 52.81 52.08 47.44 43.69 46.23 49.11 48.27 44.80 37.36 31.49 45.38 49.45 48.50 47.60 49.79 48.42 50.50 49.92 50.67 51.43 47.96 47.56 47.59 51.19 50.08 48.92 50.80 50.66 51.82 47.88 44.74 42.24 39.46 35.96 39.50 39.81 42.95 43.40 47.05 52.98 57.44 63.21 64.93 65.63
52.79 51.50 49.92 48.70 41.29 45.12 46.51 44.35 35.69 31.29 44.66 43.44 44.96 46.49 45.74 47.13 46.15 47.65 46.88 44.44 42.51 40.49 40.37 45.82 46.47 50.15 51.72 47.77 49.94 48.27 40.75 36.13 35.18 34.80 34.82 39.67 39.84 43.82 47.59 49.87 55.92 56.86 62.55 65.46 66.52
51.30 50.45 48.09 49.07 46.52 47.02 45.53 39.39 30.11 40.81 41.92 47.13 45.99 45.42 44.09 47.10 47.57 47.09 45.57 42.83 45.09 44.74 41.60 39.98 40.65 46.52 50.59 47.68 46.19 45.96 43.02 36.45 31.84 32.96 36.74 41.72 38.99 44.96 51.09 53.38 57.12 57.84 59.70 60.43 63.91
50.06 42.15 43.08 47.20 49.93 47.19 41.68 32.80 34.61 40.63 45.81 44.14 44.06 40.71 42.57 46.23 45.95 46.43 45.47 44.84 45.27 44.75 41.61 39.84 41.48 48.94 49.62 50.64 49.16 45.60 42.60 43.71 37.37 34.81 35.27 38.22 42.51 49.24 54.06 53.06 55.63 56.14 58.64 61.46 64.85
43.66 40.57 42.99 50.89 50.36 45.36 38.05 35.40 38.60 44.89 45.57 45.11 39.60 42.26 40.19 43.39 42.70 42.91 43.72 49.41 49.40 50.53 50.36 46.06 40.45 47.39 49.87 50.32 50.83 47.17 47.62 39.95 36.63 33.65 32.19 37.38 39.85 44.02 52.21 52.45 57.31 58.28 60.97 64.15 66.15
41.69 39.92 46.77 50.70 50.31 42.63 34.58 35.94 42.62 47.24 47.47 43.53 41.74 40.66 41.65 41.96 42.02 41.20 43.23 47.38 50.01 50.20 49.45 48.91 43.55 45.62 47.82 46.93 45.29 45.12 42.75 42.54 39.80 37.43 34.63 33.51 40.46 49.86 55.17 56.77 58.34 60.94 66.23 66.32 68.33
38.03 35.80 47.83 51.27 42.33 39.51 37.70 42.52 46.44 47.19 49.10 45.18 44.60 43.32 42.02 42.14 41.12 42.70 43.51 46.20 50.90 50.23 46.89 50.24 43.91 39.00 45.38 49.32 50.13 48.58 46.97 44.38 40.75 36.32 37.52 38.36 40.26 56.18 54.19 59.46 62.21 63.21 66.37 69.55 70.35
35.77 37.71 47.07 49.01 36.38 35.24 40.42 45.48 48.00 46.40 47.00 43.60 43.15 45.22 44.37 41.40 38.75 43.03 45.65 49.21 50.53 49.45 46.88 48.70 42.63 37.81 40.44 43.82 47.42 46.02 46.89 46.17 42.61 38.53 36.83 36.62 40.62 58.17 58.32 60.77 64.66 65.33 66.34 66.88 68.09
36.25 35.63 42.67 44.58 42.35 41.51 42.24 43.45 46.21 52.51 50.14 50.19 46.04 44.65 43.92 42.39 42.18 41.57 44.70 49.16 50.16 50.58 59.03 52.53 43.50 42.28 38.29 41.60 45.01 45.17 46.71 47.94 43.26 39.50 39.04 39.45 44.55 53.47 55.58 58.29 58.34 63.43 65.34 66.51 68.33
38.52 38.88 39.74 35.79 38.93 39.28 39.12 43.36 45.99 46.27 50.15 48.92 46.81 47.74 43.81 39.87 41.95 42.68 47.48 50.31 51.37 54.46 50.63 49.36 41.19 43.04 46.34 49.38 50.19 47.98 48.24 49.00 46.66 44.54 40.96 42.43 49.42 52.25 54.91 56.22 57.80 63.51 65.26 66.90 67.46
36.76 37.92 39.92 37.90 38.90 39.30 40.39 43.75 46.61 48.62 47.23 47.20 45.23 48.66 45.09 40.53 43.76 44.40 45.13 44.73 45.55 50.82 46.74 49.59 42.50 43.89 44.88 49.40 50.30 50.15 52.78 52.24 52.16 52.63 51.35 48.86 50.15 55.56 56.35 56.09 59.27 62.08 63.78 65.85 66.68
42.82 42.86 40.41 38.41 36.32 36.38 37.93 42.50 45.90 48.31 50.28 51.19 49.11 46.61 45.86 48.75 51.30 51.55 50.87 49.56 50.11 46.98 44.59 47.12 42.59 40.90 39.57 46.63 49.32 46.95 50.33 51.75 51.54 52.89 52.23 47.95 51.71 58.19 60.63 58.12 59.08 55.17 57.48 65.25 65.87

GFSSW_sfc_wetblb_087.txt.gz
Wetbulb
57.57 57.25 57.25 57.40 57.77 58.09 58.02 58.26 58.49 58.62 58.59 58.75 58.92 59.13 59.29 59.72 59.60 58.19 53.49 60.31 63.45 73.75 74.19 71.51 66.54 64.66 68.96 67.40 69.95 68.78 57.78 55.26 58.75 59.43 57.55 57.59 58.68 63.02 64.64 65.41 66.63 66.93 65.67 66.43 69.39
57.13 56.93 56.93 57.06 57.75 57.87 57.90 57.90 58.18 58.31 58.29 58.33 58.57 58.85 59.21 59.80 57.62 55.07 64.49 72.11 72.86 73.32 64.79 62.61 61.61 63.29 61.07 63.29 66.09 61.45 54.25 57.25 61.16 62.40 60.78 59.98 60.05 61.02 61.95 63.60 64.11 65.19 67.25 67.77 69.55
56.74 57.03 57.22 56.97 57.29 57.55 57.56 57.69 57.97 57.86 57.96 58.18 58.37 58.81 59.01 59.37 52.34 51.06 73.54 73.37 72.72 72.94 66.47 66.73 66.55 64.28 61.48 63.27 62.47 60.89 56.93 60.60 60.29 60.09 60.13 59.40 60.26 61.00 60.75 59.82 63.25 63.12 64.73 66.41 67.81
55.78 55.97 56.37 56.74 57.06 57.31 57.40 57.34 57.36 57.42 57.45 57.86 58.33 58.91 59.12 57.57 43.32 61.63 74.56 74.11 73.38 68.74 64.10 59.80 59.58 57.66 58.30 57.48 60.48 54.21 58.13 56.76 53.78 53.99 55.26 59.91 60.94 59.54 61.83 61.60 66.06 66.41 66.61 66.55 66.40
55.44 55.56 55.75 55.87 56.39 56.79 56.82 56.80 56.72 56.72 57.08 57.63 58.25 58.86 54.81 45.23 48.34 63.53 74.15 73.34 68.94 65.30 61.02 57.43 57.36 59.04 56.93 58.30 58.01 54.69 54.57 53.84 53.23 52.51 54.37 60.29 60.51 60.25 60.93 64.51 67.81 67.29 66.86 66.13 65.94
55.80 55.74 55.86 55.97 56.10 56.07 56.00 56.05 55.98 56.22 56.80 57.69 58.39 58.46 53.12 44.30 52.51 70.31 67.25 65.55 64.65 63.11 60.36 59.33 56.70 61.85 60.02 58.46 54.93 56.60 54.11 51.87 52.08 53.11 54.78 60.35 60.94 61.32 62.36 66.41 66.27 66.39 65.73 66.24 66.25
55.70 55.48 55.42 55.60 55.73 55.67 55.77 55.64 55.65 56.09 56.86 57.60 58.17 57.22 52.38 46.72 55.50 65.97 65.22 61.22 63.01 61.51 57.04 60.67 59.84 60.22 59.97 56.64 56.46 52.09 49.27 50.37 51.52 52.10 52.64 56.96 53.86 58.43 63.14 66.15 65.25 65.40 66.03 66.46 66.55
55.81 55.59 55.48 55.23 55.21 55.32 55.20 54.84 55.19 56.33 57.56 59.00 58.96 56.06 44.37 54.61 55.47 54.15 56.44 61.23 63.25 62.84 60.08 59.87 62.85 59.64 55.62 56.55 50.44 48.12 46.03 43.80 49.74 51.86 52.96 53.12 46.68 53.52 60.38 64.36 63.85 64.98 65.94 66.10 66.23
55.66 55.44 55.32 55.01 54.89 54.73 54.06 54.13 56.00 57.51 57.90 60.46 54.02 48.94 44.57 58.15 55.42 55.35 54.83 55.78 59.83 61.66 60.77 64.04 59.38 56.00 54.39 47.21 43.78 43.29 41.45 43.23 47.22 52.40 51.32 50.23 47.55 53.13 62.09 63.71 63.03 64.05 64.68 65.76 65.66
55.58 55.20 54.85 54.48 54.22 53.57 53.06 54.74 56.48 56.98 58.24 58.95 57.73 46.13 48.82 49.26 53.07 54.93 54.44 54.76 57.58 58.81 59.26 57.82 54.25 49.63 44.74 43.46 39.97 41.47 40.93 41.55 44.63 49.06 49.19 48.31 47.52 51.09 61.64 62.32 62.53 63.39 63.99 64.53 65.12
55.64 55.30 54.70 54.19 53.73 53.14 50.86 48.29 45.80 44.37 46.04 42.60 45.33 46.71 48.64 52.20 55.27 51.81 53.69 52.62 54.06 56.78 52.03 54.61 49.27 45.66 48.23 46.43 46.86 45.29 43.50 43.20 46.59 49.84 47.63 47.42 47.41 49.89 57.51 61.70 61.62 62.07 63.00 63.66 64.83
55.74 55.02 54.62 53.88 52.58 52.77 45.81 43.07 46.37 44.84 39.84 47.23 47.90 48.34 50.68 52.25 48.56 50.95 53.40 48.75 51.40 49.54 53.33 50.63 47.09 52.22 53.16 50.45 47.20 45.33 43.20 42.93 45.68 48.95 46.53 46.00 46.81 49.30 54.09 60.99 61.61 62.17 62.46 63.34 64.23
55.39 54.84 54.14 52.98 52.02 45.95 42.21 44.19 47.45 42.91 38.76 44.15 46.41 46.34 47.19 48.45 47.19 48.55 51.01 49.83 47.21 45.58 49.53 49.70 51.83 55.24 53.16 50.86 48.09 43.89 41.87 43.81 43.60 47.30 46.43 45.64 43.91 45.78 48.88 51.92 55.88 61.75 63.82 64.08 64.19
55.16 54.51 53.53 51.71 46.78 42.87 43.78 46.22 45.86 46.20 36.03 41.58 45.57 47.54 47.89 47.58 45.56 52.13 52.38 50.38 47.21 44.97 45.57 48.39 53.35 52.72 50.40 49.19 48.60 42.04 47.97 47.63 46.31 43.07 40.65 44.44 37.00 42.43 45.61 46.73 48.87 51.77 60.35 63.14 64.24
54.94 54.25 53.14 52.06 41.93 41.85 45.40 45.49 47.87 44.18 29.69 46.39 47.05 51.86 50.00 45.94 48.99 49.72 52.07 48.96 45.97 46.07 45.18 44.58 48.26 48.60 48.85 50.12 49.11 46.39 48.62 46.81 46.33 41.79 37.88 40.77 36.80 41.30 43.49 45.42 47.01 50.38 54.34 59.75 64.02
54.51 53.53 52.46 46.43 42.08 44.79 46.38 44.92 43.40 36.90 30.85 43.61 47.51 46.78 45.38 46.02 48.10 49.37 48.01 49.32 49.37 45.57 45.05 45.14 49.63 49.36 49.43 50.87 49.86 50.44 46.74 43.19 40.23 37.38 34.54 38.80 38.18 38.86 41.87 44.59 47.85 54.04 57.16 59.50 62.72
53.25 51.64 50.03 48.09 41.88 43.21 45.18 42.97 35.45 31.19 43.08 41.96 42.27 44.45 42.37 43.73 45.61 46.35 45.79 42.58 40.88 38.37 38.02 43.73 45.17 47.45 50.00 45.72 47.20 45.76 39.45 36.09 34.02 33.31 35.27 38.58 37.71 40.74 44.48 47.97 50.29 52.13 55.42 61.27 63.35
51.23 50.49 47.21 48.25 45.63 45.82 43.31 38.94 29.29 39.31 39.55 44.79 43.26 43.17 40.85 43.70 44.67 45.39 44.67 41.70 42.83 42.51 38.87 38.35 38.66 45.30 48.49 46.15 44.11 42.79 40.74 35.12 30.85 32.42 37.61 38.69 36.06 42.59 48.47 49.53 49.95 52.47 56.42 62.11 62.48
49.88 41.98 41.29 43.58 47.72 44.34 40.79 32.01 34.13 38.10 43.82 42.27 41.92 38.95 39.66 42.94 43.20 42.79 42.51 43.81 45.35 44.53 40.44 38.18 39.26 47.78 48.16 48.27 48.05 44.48 40.34 43.36 37.58 32.54 33.33 36.62 40.73 46.55 49.42 52.89 53.16 51.90 59.33 61.97 62.85
42.27 39.70 41.86 47.66 47.96 43.09 37.01 34.39 36.45 42.70 43.87 42.70 37.82 40.05 37.01 40.58 40.01 39.82 41.47 46.17 45.95 48.59 47.50 42.99 38.74 45.34 49.14 49.26 48.79 46.10 46.56 39.56 37.91 32.53 30.41 35.30 37.56 39.66 46.04 51.76 54.83 53.61 57.11 59.68 62.09
39.41 37.62 44.49 47.98 46.73 41.66 34.21 34.39 40.47 45.22 45.46 42.17 40.07 39.18 39.55 39.79 38.57 38.52 40.84 45.79 47.69 48.20 48.06 42.39 40.73 43.63 47.27 44.22 43.35 42.73 42.52 41.99 39.62 35.72 33.22 32.01 36.88 45.07 49.90 55.43 58.07 64.01 65.92 66.63 68.02
36.75 35.72 46.09 47.97 41.54 36.33 36.89 40.52 45.32 46.88 48.67 45.17 43.64 41.87 39.94 40.66 39.28 39.64 40.61 44.25 48.80 47.95 45.51 46.73 39.56 38.66 44.38 48.60 48.90 46.58 43.65 43.28 39.38 35.49 34.49 34.64 37.72 53.68 54.29 58.31 64.22 66.23 67.62 68.57 68.89
33.79 34.71 44.28 46.30 36.16 33.91 37.97 43.93 46.41 46.25 47.83 44.73 43.63 43.71 42.73 41.01 38.64 41.47 44.40 49.81 52.85 47.64 46.39 47.29 40.44 37.33 40.98 45.57 46.89 44.11 46.05 42.93 40.81 36.30 35.43 35.65 38.71 56.17 58.80 61.29 64.73 65.48 67.06 68.19 68.97
35.05 35.45 39.84 41.20 38.55 38.15 37.48 39.62 42.81 50.26 49.16 48.53 45.42 46.32 43.47 41.59 40.37 40.44 44.89 50.57 52.12 51.21 59.38 51.75 41.33 40.59 37.90 42.69 46.55 43.80 45.06 45.79 41.94 37.02 35.67 37.23 39.91 50.08 57.67 59.70 62.09 63.95 67.60 68.09 68.56
36.54 37.23 37.46 34.59 37.42 36.40 36.13 39.89 42.87 42.38 48.62 47.92 45.96 45.76 42.09 37.15 41.57 42.58 45.39 47.12 50.60 54.21 48.76 45.52 40.40 42.46 45.03 47.30 48.64 48.32 50.02 45.48 43.90 43.90 38.94 42.78 41.68 46.75 55.21 54.94 56.90 62.05 63.24 65.51 67.20
36.23 36.42 38.11 35.99 36.64 36.16 37.37 36.75 40.76 42.03 45.43 45.64 43.82 47.03 43.92 40.48 42.97 42.38 43.87 42.59 44.39 47.57 45.96 44.59 41.14 44.13 43.10 47.86 49.78 49.98 51.40 52.89 51.80 51.92 50.80 50.96 48.80 54.21 57.26 59.85 60.06 60.70 61.83 64.45 65.54
40.48 39.27 38.56 37.42 34.26 34.24 35.17 38.23 40.62 41.79 45.84 47.80 47.15 44.77 45.43 46.23 48.70 49.40 49.09 48.19 47.75 44.52 43.56 43.42 44.30 43.04 39.76 44.71 46.59 45.12 49.23 51.55 51.50 52.98 52.58 48.02 51.15 58.05 56.55 57.78 57.77 57.73 59.73 61.37 63.66